Weather in Kazayak

Russia / Republic of Bashkortostan     54°58′31″N   57°07′53″E
temp.,
°C
wind,
m/s
gust,
m/s
humid.,
%
clouds,
%
prec.,
mm/h
press.,
hPa
HPBL,
m
3 march, wed
wed323:00−9ssw51394100 2.3 1003765
02:00−7ssw41295100 1.8 1001747
05:00−5ssw51295100 3.6 1000673
08:00−4ssw41096100 1.3 1000470
11:00−3sw4896100 2.3 1001648
14:00−2sw4894100 0.8 1000715
17:00−2sw4794100 1.3 1000603
20:00−3sw3797100 0.9 1000382
4 march, thu
thu423:00−5sw3797100 1.8 1000349
02:00−5sw3796100 1.2 999463
05:00−9wsw3896100 2.2 1001443
08:00−10wsw3896100 1.3 1002458
11:00−10sw4894100 1.9 1003490
14:00−8ssw51093100 0.6 1001679
17:00−7sw51194100 2.1 1001863
20:00−6ssw51295100 1.8 1000930
5 march, fri
fri523:00−6ssw61495100 5.4 9981136
02:00−3wsw61391100 2.8 9971263
05:00−5wsw31191100 2.9 999536
08:00−4sw3996100 0.1 1001523
11:00−3sw3697100 2.0 1001514
14:00−2wsw1399100 2.3 1001324
17:00−1sw51097100 5.2 1001772
20:00−1s2798100 3.1 999453
6 march, sat
sat623:000sw71397100 7.6 10001088
02:00−6w4995100 1.9 1005482
05:00−11wsw3697100 2.4 1010197
08:00−17sw23100100 0.1 101255
11:00−14wsw2395100 0.3 1013333
14:00−10sw1290100 0.1 1012446
17:00−10nnw1189100 0.1 1010342
20:00−13nne2293100 0.0 100921
7 march, sun
sun723:00−15ne2293100 0.0 101021
02:00−18nne129558 0.0 100920
05:00−21sw119729 0.0 101120
08:00−22ssw129944 0.0 101220
11:00−16sw249670 0.1 1012259
14:00−12sw3593100 0.2 1012502
17:00−11sw3593100 0.4 1012599
20:00−15ssw2398100 0.1 101482